DELTA 1 DEB, 7170

Orbit data source: Space-Track

DELTA 1 DEB, 7170 is space debris in SSO originally from a launch on Tue, 06 Nov 1973 UTC launched from the Air Force Western Test Range (AFWTR). Debris objects in space refer to the collection of defunct objects orbiting the Earth. Examples of debris include non-operational satellites, rocket bodies, and fragments generated from explosions, collisions, or faulty payload assembly.

Loading next visibility...
Identifier
7170, 1973-086EJ
Orbit
SSO
Country
Flag of USUS
Related business
Manufacturer
Unknown
Mission
Spacecraft
Bus & Motor
Unknown
Mass
Unknown
Launch date (UTC)
1973-11-06 (53 years ago)
Launch vehicle
Unknown
Launch site
Air Force Western Test Range (AFWTR)
Object type
Payload
Rocket body
Debris
Shape & HBR
Unknown shape, 0.1 m
Radar Cross Section
Medium (>0.1 m² and <1 m²)

Expand to show TLE details & history
Last TLE update: 1 day ago

TLE from 1 day ago
0 DELTA 1 DEB
1 07170U 73086EJ  26206.38198358 -.00000683  00000-0 -18527-2 0  9994
2 07170 101.6512 262.4406 0092677  61.6357 314.9606 13.07196488469157
Epoch: 2026-07-25T09:10Z
TLE epoch observation values (Epoch: 2026-07-25T09:10:03.381Z)
Latitude
15.48534°
Longitude
178.57311°
Altitude
1,186.474 km
Speed
7.285 km/s
True Right ascension
17h 16m 43s
True Declination
15° 24' 08"
Sunlit
Object was in full shadow at epoch
Visualization orbit readout
Latitude
Unknown
Longitude
Unknown
Altitude
Unknown
Speed
Unknown
Apparent Right ascension
Unknown
Apparent Declination
Unknown
Sunlit
N/A
Visualization observer readout
Local Sidereal Time
22:22:11
Azimuth
Unknown
Elevation
Unknown
Doppler factor
Unknown
Orbital elements
Apogee altitude
1,302.013 km
Perigee altitude
1,160.966 km
Semi-major axis
7,609.626 km
Eccentricity
0.00927
Inclination
101.6512°
RAAN
262.4406°
Arg. of periapsis
61.6357°
True anomaly
314.20296°
Mean anomaly
314.9606°
Eccentric anomaly
314.5824°
Mean motion
3.26963 °/min
Orbital period
110.1 mins
BSTAR
-0.0018527
Loading maneuver chart data...
Computing Atmospheric mass density...
Loading historical data...
Loading historical data...
Loading historical data...
Loading historical data...
Loading historical data...
Loading historical data...
Loading historical data...

Documentation

Showing up to 5 results
|